Regional Weather Roundup
Issued by NWS Upton, NY

Current Version | Previous Version | Text Only | Print | Product List | Glossary Off
Versions: 1 2 3 4 5 6 7 8 9 10 11 12 13 14 15 16 17 18 19 20 21 22 23 24 25 26 27 28 29 30 31 32 33 34 35 36 37 38 39 40 41 42 43 44 45 46 47 48 49 50
000 ASUS41 KOKX 150105 RWROKX REGIONAL WEATHER ROUNDUP NATIONAL WEATHER SERVICE NEW YORK NY 900 PM EDT SUN SEP 14 2014 NOTE: "FAIR" INDICATES FEW OR NO CLOUDS BELOW 12,000 FEET WITH NO SIGNIFICANT WEATHER AND/OR OBSTRUCTIONS TO VISIBILITY. NYZ071-072-176-178-NJZ106-104-150200- NEW YORK CITY METRO AREA CITY SKY/WX TMP DP RH WIND PRES REMARKS CENTRAL PARK PTCLDY 63 46 54 CALM 30.22R LAGUARDIA APRT MOCLDY 67 43 41 E8 30.19R KENNEDY INTL MOCLDY 64 50 60 SW6 30.21R NEWARK/LIBERTY MOCLDY 63 50 62 S7 30.19R BRNX BOT. GARD N/A 59 43 55 N2 30.22R TETERBORO PTCLDY 63 44 50 N5 30.19R $$ NYZ177-179-078>081-150200- LONG ISLAND NEW YORK CITY SKY/WX TMP DP RH WIND PRES REMARKS FARMINGDALE MOCLDY 61 48 62 CALM 30.21R ISLIP MOCLDY 57 49 74 CALM 30.19R SHIRLEY MOCLDY 56 49 77 CALM 30.21R WESTHAMPTON N/A N/A N/A N/A MISG 30.21S MONTAUK POINT N/A 58 51 78 CALM 30.21S $$ NYZ052-065-067-150200- HUDSON VALLEY CITY SKY/WX TMP DP RH WIND PRES REMARKS WHITE PLAINS MOCLDY 56 45 66 CALM 30.20R NEWBURGH PTCLDY 55 48 76 CALM 30.22R MONTGOMERY PTCLDY 54 46 74 N3 30.21R POUGHKEEPSIE PTCLDY 52 48 86 CALM 30.21R ALBANY PTCLDY 49 44 83 CALM 30.22S $$ NJZ001-105-106-008-010-013-015-019>022-104-150200- NEW JERSEY CITY SKY/WX TMP DP RH WIND PRES REMARKS NEWARK/LIBERTY MOCLDY 63 50 62 S7 30.19R TETERBORO PTCLDY 63 44 50 N5 30.19R CALDWELL MOCLDY 58 46 64 CALM 30.20R MORRISTOWN MOCLDY 55 50 82 CALM 30.21R SOMERVILLE MOCLDY 53 50 89 CALM 30.19R LINDEN FAIR 67 53 61 CALM 30.21S SUSSEX PTCLDY 53 48 83 CALM 30.21R ANDOVER N/A 51 50 96 CALM 30.21R TRENTON MOCLDY 60 49 66 CALM 30.20R MILLVILLE MOCLDY 55 52 89 CALM 30.22R ATLANTIC CITY MOCLDY 58 55 90 NW3 30.22R WRIGHTSTOWN NOT AVBL TOMS RIVER CLOUDY 55 52 88 CALM 30.22R BELMAR MOCLDY 61 48 63 SW5 30.21R $$ PAZ047>061-062-071-150200- EASTERN PENNSYLVANIA CITY SKY/WX TMP DP RH WIND PRES REMARKS PHILADELPHIA MOCLDY 64 49 57 SW9 30.22R ALLENTOWN CLEAR 55 48 77 SW5 30.21R SCRANTON CLEAR 52 45 77 E8 30.21S $$ CTZ002-004>006-009-010-012-RIZ004-006-007-MAZ004-011-015-150200- SOUTHERN NEW ENGLAND IN CT CITY SKY/WX TMP DP RH WIND PRES REMARKS BRADLEY INTL CLOUDY 55 47 74 CALM 30.19S HARTFORD MOCLDY 59 47 64 VRB6 30.20R DANBURY MOCLDY 52 48 86 SW3 30.22R WTRBRY/OXFORD MOCLDY 52 43 71 CALM 30.22S BRIDGEPORT MOCLDY 60 45 57 N3 30.20S MERIDEN MOCLDY 54 48 80 CALM 30.20S NEW HAVEN MOCLDY 59 46 62 CALM 30.20S CHESTER FAIR 55 54 94 CALM 30.21R GROTON CLOUDY 57 53 86 NE3 30.19S WILLIMANTIC MOCLDY 54 50 86 N3 30.21R IN RI CITY SKY/WX TMP DP RH WIND PRES REMARKS PROVIDENCE MOCLDY 58 48 69 NE7 30.21R BLOCK ISLAND MOCLDY 61 48 63 SW6 30.20S WESTERLY MOCLDY 57 51 80 CALM 30.21R IN MA CITY SKY/WX TMP DP RH WIND PRES REMARKS BOSTON CLOUDY 57 49 74 S6 30.21R WORCESTER MOCLDY 55 44 66 N3 30.21S WESTFIELD MOCLDY 54 47 77 CALM 30.21R PROVINCETOWN MOCLDY 48 45 87 CALM 30.21S NANTUCKET PTCLDY 51 47 86 NE3 30.21R $$ ANZ330-335-338-340-345-350-353-355-150200- COASTAL MARINE OBSERVATIONS STATION/POSITION TIME SKY/WX TEMP WIND PRES VSBY WAVE AIR SEA DIR/SP/G HT/PER (UTC) (F) (DEG/KT/KT) (MB) (MI) (FT/S) NY HARB ENTRANCE NOT AVBL 4S FIRE IS NOT AVBL 23SW MTP 0100 N/A 2/ 5 HUDSON CANYON 0100 62 73 300/ 2/ 6 1023.0 2/ 5 EXECUTION ROCKS 0100 66 72 100/ 6/ 8 N/A WESTERN LI SOUND 0100 66 60/ 6/ 10 N/A 1 CENTRAL LI SOUND 0000 65 71 320/ 12/ 16 N/A 1/ 2 EASTERN LI SOUND 0000 64 68 310/ 6/ 8 N/A ROBBINS REEF 0100 65 210/ 10/ 12 1021.1 $$ >>>>>>>>>>>>>>>>>>>>>>>>>>>> KEY <<<<<<<<<<<<<<<<<<<<<<<<<<< > < > SKY/WX - SKY CONDITION/PRESENT WEATHER < > TMP - TEMPERATURE IN FAHRENHEIT < > DP - DEWPOINT IN FAHRENHEIT < > RH - RELATIVE HUMIDITY IN PERCENT < > WIND - DIRECTION AND SPEED IN MPH < > PRES - MEAN SEA LEVEL PRESSURE IN INCHES OF HG < > WCI - WIND CHILL INDEX < > VSB - VISIBILITY IN MILES < > HX - HEAT INDEX < > TC - TEMPERATURE IN CELSIUS < > VRB - VARIABLE WIND DIRECTION < > < >>>>>>>>>>>>>>>>>>>>>>>>>>>> KEY <<<<<<<<<<<<<<<<<<<<<<<<<<<

USA.gov is the U.S. government's official web portal to all federal, state and local government web resources and services.